• In Russia
  • List of Countries
  • For 7 days
  • Water Temperature
  • Satellite Maps
  • Weather Map
  • Weather Widgets
  • user-avatar
    Login

    Hourly Weather Bregenz

    Today, 25 February, Saturday

    Time Temperature Precipitation Wind Pressure Humidity
    00:00 -8°C° 0 mm 0 mps 643 mmHg 97%
    01:00 -9°C° 0 mm 0 mps 643 mmHg 97%
    02:00 -9°C° 0 mm 0 mps 643 mmHg 97%
    03:00 -10°C° 0 mm 0 mps 643 mmHg 97%
    04:00 -10°C° 0 mm 1 mps 643 mmHg 97%
    05:00 -10°C° 0 mm 1 mps 644 mmHg 96%
    06:00 -10°C° 0 mm 1 mps 644 mmHg 95%
    07:00 -9°C° 0 mm 2 mps 645 mmHg 94%
    08:00 -6°C° 0 mm 1 mps 645 mmHg 90%
    09:00 -3°C° 0 mm 1 mps 646 mmHg 87%
    10:00 -1°C° 0 mm 1 mps 646 mmHg 84%
    11:00 0°C° 0 mm 1 mps 646 mmHg 82%
    12:00 +2°C° 0 mm 1 mps 646 mmHg 80%
    13:00 +3°C° 0 mm 1 mps 646 mmHg 78%
    14:00 +3°C° 0 mm 1 mps 646 mmHg 79%
    15:00 +3°C° 0 mm 1 mps 646 mmHg 80%
    16:00 +2°C° 0 mm 0 mps 646 mmHg 82%
    17:00 -1°C° 0 mm 0 mps 645 mmHg 86%
    18:00 -3°C° 0 mm 0 mps 644 mmHg 90%
    19:00 -6°C° 0 mm 0 mps 643 mmHg 94%
    20:00 -4°C° 0 mm 1 mps 644 mmHg 92%
    21:00 -4°C° 0 mm 1 mps 644 mmHg 91%
    22:00 -3°C° 0 mm 1 mps 645 mmHg 89%
    23:00 -3°C° 0 mm 1 mps 645 mmHg 88%

    Tomorrow, 26 February, Sunday

    Time Temperature Precipitation Wind Pressure Humidity
    00:00 -5°C° 0 mm 2 mps 644 mmHg 88%
    01:00 -5°C° 0 mm 2 mps 644 mmHg 87%
    02:00 -5°C° 0 mm 2 mps 644 mmHg 87%
    03:00 -5°C° 0 mm 2 mps 644 mmHg 87%
    04:00 -4°C° 0 mm 2 mps 644 mmHg 87%
    05:00 -4°C° 0 mm 2 mps 644 mmHg 86%
    06:00 -4°C° 0 mm 2 mps 643 mmHg 85%
    07:00 -4°C° 0 mm 2 mps 643 mmHg 85%
    08:00 -2°C° 0 mm 2 mps 644 mmHg 84%
    09:00 +2°C° 0 mm 1 mps 645 mmHg 83%
    10:00 +4°C° 0 mm 1 mps 645 mmHg 82%
    11:00 +5°C° 0 mm 1 mps 645 mmHg 80%
    12:00 +5°C° 0 mm 1 mps 645 mmHg 78%
    13:00 +6°C° 0 mm 1 mps 645 mmHg 76%
    14:00 +6°C° 0 mm 1 mps 645 mmHg 78%
    15:00 +6°C° 0 mm 1 mps 645 mmHg 81%
    16:00 +6°C° 0 mm 1 mps 644 mmHg 84%
    17:00 +4°C° 0 mm 1 mps 644 mmHg 86%
    18:00 0°C° 0 mm 0 mps 643 mmHg 88%
    19:00 -2°C° 0 mm 0 mps 642 mmHg 91%
    20:00 -2°C° 0 mm 0 mps 642 mmHg 90%
    21:00 -3°C° 0 mm 0 mps 642 mmHg 90%
    22:00 -3°C° 0 mm 0 mps 642 mmHg 89%
    23:00 -3°C° 0 mm 0 mps 642 mmHg 89%

    Day after tomorrow, 27 February, Monday

    Time Temperature Precipitation Wind Pressure Humidity
    00:00 -2°C° 0 mm 1 mps 642 mmHg 89%
    01:00 -2°C° 0 mm 1 mps 642 mmHg 89%
    02:00 -2°C° 0 mm 1 mps 641 mmHg 89%
    03:00 -2°C° 0 mm 1 mps 641 mmHg 89%
    04:00 -2°C° 0 mm 1 mps 641 mmHg 89%
    05:00 -2°C° 0 mm 1 mps 641 mmHg 89%
    06:00 -4°C° 0 mm 2 mps 641 mmHg 89%
    07:00 -4°C° 0 mm 2 mps 640 mmHg 89%
    08:00 -2°C° 0 mm 2 mps 641 mmHg 85%
    09:00 +1°C° 0 mm 2 mps 641 mmHg 82%
    10:00 +3°C° 0 mm 2 mps 641 mmHg 78%
    11:00 +4°C° 0 mm 2 mps 641 mmHg 76%
    12:00 +5°C° 0 mm 2 mps 641 mmHg 74%
    13:00 +6°C° 0 mm 2 mps 640 mmHg 72%
    14:00 +6°C° 0 mm 2 mps 640 mmHg 75%
    15:00 +6°C° 0 mm 2 mps 639 mmHg 78%
    16:00 +6°C° 0 mm 2 mps 639 mmHg 81%
    17:00 +4°C° 0 mm 2 mps 638 mmHg 84%
    18:00 +2°C° 0 mm 2 mps 638 mmHg 87%
    19:00 -1°C° 0 mm 3 mps 637 mmHg 91%
    20:00 -2°C° 0 mm 3 mps 637 mmHg 90%
    21:00 -2°C° 0 mm 3 mps 637 mmHg 89%
    22:00 -2°C° 0 mm 3 mps 637 mmHg 88%
    23:00 -2°C° 0.1 mm 3 mps 637 mmHg 88%

    28 February, Tuesday

    Time Temperature Precipitation Wind Pressure Humidity
    00:00 -2°C° 0.1 mm 3 mps 637 mmHg 88%
    01:00 -2°C° 0.1 mm 3 mps 636 mmHg 89%
    02:00 -2°C° 0.4 mm 3 mps 636 mmHg 89%
    03:00 -2°C° 0.4 mm 3 mps 636 mmHg 90%
    04:00 -2°C° 0.4 mm 3 mps 635 mmHg 91%
    05:00 -2°C° 0.7 mm 3 mps 635 mmHg 92%
    06:00 -2°C° 0.7 mm 2 mps 635 mmHg 92%
    07:00 -1°C° 0.7 mm 2 mps 635 mmHg 93%
    08:00 +1°C° 0.3 mm 2 mps 634 mmHg 91%
    09:00 +2°C° 0.3 mm 2 mps 634 mmHg 89%
    10:00 +2°C° 0.3 mm 3 mps 634 mmHg 88%
    11:00 +2°C° 0.2 mm 3 mps 634 mmHg 86%
    12:00 +3°C° 0.2 mm 3 mps 633 mmHg 85%
    13:00 +4°C° 0.2 mm 3 mps 633 mmHg 83%
    14:00 +3°C° 1.2 mm 4 mps 633 mmHg 85%
    15:00 +1°C° 1.2 mm 5 mps 633 mmHg 88%
    16:00 -1°C° 1.2 mm 6 mps 632 mmHg 90%
    17:00 -2°C° 2.1 mm 6 mps 633 mmHg 92%
    18:00 -3°C° 2.1 mm 6 mps 633 mmHg 93%
    19:00 -4°C° 2.1 mm 6 mps 633 mmHg 95%
    20:00 -5°C° 1 mm 6 mps 634 mmHg 95%
    21:00 -5°C° 1 mm 6 mps 634 mmHg 94%
    22:00 -6°C° 1 mm 6 mps 635 mmHg 94%
    23:00 -6°C° 0.6 mm 6 mps 636 mmHg 94%

    1 March, Wednesday

    Time Temperature Precipitation Wind Pressure Humidity
    00:00 -8°C° 0.6 mm 6 mps 637 mmHg 95%
    01:00 -8°C° 0.6 mm 5 mps 638 mmHg 95%
    02:00 -8°C° 0.2 mm 5 mps 639 mmHg 95%
    03:00 -8°C° 0.2 mm 4 mps 640 mmHg 95%
    04:00 -8°C° 0.2 mm 4 mps 641 mmHg 95%
    05:00 -9°C° 0 mm 4 mps 641 mmHg 94%
    06:00 -8°C° 0 mm 3 mps 641 mmHg 93%
    07:00 -9°C° 0 mm 3 mps 642 mmHg 92%
    08:00 -8°C° 0 mm 3 mps 642 mmHg 90%
    09:00 -6°C° 0 mm 3 mps 642 mmHg 87%
    10:00 -4°C° 0 mm 3 mps 643 mmHg 84%
    11:00 -1°C° 0 mm 3 mps 643 mmHg 86%
    12:00 +1°C° 0 mm 2 mps 643 mmHg 87%
    13:00 +3°C° 0 mm 2 mps 642 mmHg 88%
    14:00 +1°C° 0.2 mm 3 mps 642 mmHg 90%
    15:00 +1°C° 0.2 mm 3 mps 642 mmHg 92%
    16:00 +1°C° 0.2 mm 3 mps 642 mmHg 94%
    17:00 +1°C° 0.4 mm 3 mps 642 mmHg 94%
    18:00 0°C° 0.4 mm 3 mps 642 mmHg 94%
    19:00 -1°C° 0.4 mm 3 mps 642 mmHg 95%
    20:00 -1°C° 0.7 mm 3 mps 642 mmHg 94%
    21:00 -1°C° 0.7 mm 3 mps 642 mmHg 94%
    22:00 -1°C° 0.7 mm 3 mps 643 mmHg 94%
    23:00 -1°C° 1.2 mm 3 mps 643 mmHg 94%

    2 March, Thursday

    Time Temperature Precipitation Wind Pressure Humidity
    00:00 -1°C° 1.2 mm 3 mps 644 mmHg 95%
    01:00 0°C° 1.2 mm 3 mps 644 mmHg 96%
    02:00 +1°C° 1 mm 2 mps 644 mmHg 96%
    03:00 -1°C° 1 mm 2 mps 644 mmHg 97%
    04:00 +1°C° 1 mm 1 mps 645 mmHg 97%
    05:00 +1°C° 0.3 mm 1 mps 645 mmHg 97%
    06:00 +1°C° 0.3 mm 1 mps 645 mmHg 97%
    07:00 +1°C° 0.3 mm 1 mps 645 mmHg 97%
    08:00 +2°C° 0.1 mm 1 mps 645 mmHg 96%
    09:00 +3°C° 0.1 mm 1 mps 645 mmHg 96%
    10:00 +4°C° 0.1 mm 1 mps 645 mmHg 95%
    11:00 +4°C° 0.1 mm 1 mps 645 mmHg 94%
    12:00 +4°C° 0.1 mm 2 mps 645 mmHg 93%
    13:00 +4°C° 0.1 mm 2 mps 645 mmHg 93%
    14:00 +4°C° 0.1 mm 2 mps 645 mmHg 93%
    15:00 +6°C° 0.1 mm 1 mps 645 mmHg 92%
    16:00 +6°C° 0.1 mm 1 mps 645 mmHg 92%
    17:00 +4°C° 0.1 mm 1 mps 645 mmHg 94%
    18:00 +3°C° 0.1 mm 1 mps 644 mmHg 95%
    19:00 +1°C° 0.1 mm 1 mps 644 mmHg 97%
    20:00 +1°C° 0 mm 1 mps 644 mmHg 96%
    21:00 +1°C° 0 mm 1 mps 644 mmHg 95%
    22:00 +1°C° 0 mm 1 mps 644 mmHg 94%
    23:00 -1°C° 0 mm 2 mps 644 mmHg 94%
    Show more